Lid_Strength_Index
11 10 9 8 7 7 7 7 7 6 6 6 6 7 8 8 9 9 8 8 7 7 6 6 6 5 6 6 6 5 5 5 6 5 5 3 4 5 5 5 6 6 6
11 11 9 8 7 7 7 7 6 5 5 5 6 7 9 9 10 10 10 10 9 9 9 9 9 8 8 8 8 7 6 6 6 8 6 6 5 5 5 5 5 6 6
11 11 10 9 8 8 8 8 7 7 7 7 8 9 9 10 10 11 11 11 10 10 10 10 10 10 10 11 10 9 9 9 7 7 7 8 9 8 5 5 5 6 6
11 11 11 10 10 10 9 8 8 8 8 7 8 8 10 12 12 12 11 11 11 11 11 11 11 11 10 10 10 10 10 10 11 9 9 7 8 10 10 7 7 8 8
11 12 12 12 12 11 11 10 10 10 10 9 9 10 11 11 12 12 12 12 11 11 12 11 11 11 11 11 11 11 11 11 11 11 11 10 10 9 13 13 12 10 9
12 12 12 12 12 12 11 11 12 12 11 11 10 11 11 12 12 12 12 12 12 12 12 12 12 12 12 12 11 11 11 11 11 11 11 11 12 13 13 13 13 13 11
12 12 13 13 13 13 12 12 12 13 12 12 11 11 11 11 12 12 12 12 13 13 13 12 12 12 12 12 11 11 12 12 12 12 12 11 11 11 12 12 13 14 12
12 12 13 13 13 13 13 14 13 14 13 12 12 12 11 11 12 12 12 12 13 13 12 13 12 12 12 12 12 12 12 11 11 11 11 11 10 10 11 12 12 14 13
12 13 13 13 13 14 14 13 13 13 13 13 12 12 12 12 12 12 12 12 12 13 13 13 13 13 13 13 12 12 12 11 11 11 10 11 10 10 10 10 10 12 15
12 12 13 13 13 13 13 13 13 13 13 13 12 12 12 12 12 12 12 12 13 13 13 13 13 13 13 13 12 12 11 11 10 11 11 11 10 10 10 10 10 11 12
12 12 12 13 13 13 13 14 13 13 13 13 12 12 12 12 12 12 12 12 13 13 13 14 14 14 14 13 13 12 12 12 11 11 11 11 11 11 11 11 11 11 11
12 12 12 13 13 13 14 14 13 13 13 13 12 12 12 12 12 13 12 12 13 13 14 14 14 14 13 13 13 13 12 12 12 12 12 12 12 12 12 12 12 12 12
11 12 12 13 14 13 13 13 13 13 13 13 12 12 13 12 12 12 12 13 13 14 14 14 14 14 13 13 13 13 13 12 12 12 12 12 12 12 12 12 12 12 12
12 12 12 12 13 13 13 13 13 13 13 13 12 12 12 12 12 12 13 13 13 14 14 14 14 14 14 14 13 13 12 12 11 11 11 11 11 12 12 12 12 11 12
12 12 12 11 12 12 13 13 13 13 12 13 13 12 12 12 12 12 13 14 14 14 14 14 14 14 14 14 13 12 12 11 11 11 11 11 11 10 10 11 12 12 13
11 11 11 11 11 11 12 12 13 13 12 13 13 12 12 12 13 13 14 14 14 14 14 14 14 14 14 13 13 11 11 11 11 11 11 11 10 11 10 10 10 10 12
11 11 11 11 11 11 11 12 12 12 13 13 13 13 12 13 14 14 14 14 14 14 14 14 14 14 13 12 12 11 11 11 11 11 11 11 11 11 11 10 10 10 9
11 10 10 10 10 10 11 11 12 13 13 13 13 13 13 13 13 13 13 13 13 14 14 14 14 14 13 12 11 11 11 11 11 11 11 11 11 10 10 11 10 10 10
10 10 10 10 10 11 11 12 13 13 13 13 13 13 13 13 13 13 14 13 13 14 14 14 14 14 13 12 11 11 11 11 11 10 10 10 10 9 8 9 10 10 10
11 12 11 11 12 12 12 13 14 14 14 13 12 12 12 12 13 13 13 13 13 13 14 14 13 14 14 12 11 11 11 11 11 10 9 8 8 8 7 9 11 13 12
13 13 13 13 12 13 13 13 13 13 12 12 12 12 11 12 12 12 13 14 15 14 15 14 14 14 14 14 11 10 11 11 11 10 10 9 8 8 8 8 11 12 11
14 14 14 14 14 13 13 13 13 11 12 12 12 13 13 12 13 14 15 15 15 16 16 15 14 13 13 12 11 10 9 9 10 10 9 9 8 8 9 10 10 10 11
15 14 14 14 14 13 13 13 12 12 13 13 14 14 14 14 15 16 15 16 16 15 14 13 13 12 11 12 10 9 8 8 9 9 8 7 9 9 10 11 11 12 14
14 14 14 14 14 14 13 12 13 14 14 14 15 15 16 15 16 15 14 14 14 14 13 12 12 12 11 11 10 10 10 8 8 8 10 10 9 10 10 12 13 13 14
14 14 14 13 13 12 12 12 14 15 14 13 14 14 15 15 15 15 13 13 12 11 12 11 11 12 12 11 9 9 9 8 8 9 12 12 12 13 13 13 14 14 14
13 14 14 14 13 13 14 14 15 14 13 14 14 13 14 14 14 13 14 11 10 10 9 9 11 12 10 8 8 7 7 6 8 11 13 14 14 14 14 15 15 15 15